DAL8958 KCMH-KRDU

Flight info

Callsign DAL8958
Flight time 0h 55m
Altitude 35000
Route POBSE OHIOS ASERY ROA FRIKY ALDAN4
Aircraft B738/M-SDE2E3FGHIRWXY/LB1

Departure

Time 2026-05-08 01:44
Airport John Glenn Columbus International Airport (KCMH)

Arrival

Time 2026-05-08 02:40
Airport Raleigh-Durham International Airport (KRDU)
Time Latitude Longitude Altitude Speed Heading
2026-05-08 01:21 39.99981 -82.88604 812 ft 0 kts 199°
2026-05-08 01:35 39.99989 -82.88600 812 ft 2 kts 199°
2026-05-08 01:36 40.00004 -82.88597 812 ft 2 kts 168°
2026-05-08 01:36 40.00018 -82.88605 812 ft 2 kts 142°
2026-05-08 01:36 40.00028 -82.88619 812 ft 2 kts 114°
2026-05-08 01:36 40.00031 -82.88638 812 ft 2 kts 88°
2026-05-08 01:37 40.00031 -82.88658 812 ft 2 kts 95°
2026-05-08 01:37 40.00032 -82.88676 812 ft 1 kts 93°
2026-05-08 01:37 40.00032 -82.88678 812 ft 0 kts 92°
2026-05-08 01:39 40.00032 -82.88673 812 ft 1 kts 92°
2026-05-08 01:39 40.00034 -82.88648 812 ft 4 kts 86°
2026-05-08 01:40 40.00029 -82.88581 811 ft 9 kts 97°
2026-05-08 01:40 40.00022 -82.88488 811 ft 10 kts 94°
2026-05-08 01:40 40.00016 -82.88380 809 ft 12 kts 94°
2026-05-08 01:40 40.00014 -82.88326 808 ft 2 kts 81°
2026-05-08 01:41 40.00033 -82.88303 807 ft 5 kts 15°
2026-05-08 01:41 40.00068 -82.88294 806 ft 3 kts 33°
2026-05-08 01:41 40.00080 -82.88255 805 ft 7 kts 84°
2026-05-08 01:41 40.00077 -82.88165 803 ft 11 kts 94°
2026-05-08 01:42 40.00071 -82.88051 801 ft 13 kts 94°
2026-05-08 01:42 40.00066 -82.87968 800 ft 2 kts 86°
2026-05-08 01:42 40.00079 -82.87947 799 ft 4 kts 30°
2026-05-08 01:42 40.00113 -82.87937 798 ft 6 kts
2026-05-08 01:43 40.00143 -82.87938 798 ft 0 kts 328°
2026-05-08 01:43 40.00148 -82.87946 798 ft 1 kts 301°
2026-05-08 01:43 40.00160 -82.87974 798 ft 4 kts 295°
2026-05-08 01:43 40.00166 -82.88012 799 ft 4 kts 275°
2026-05-08 01:44 40.00171 -82.88098 800 ft 29 kts 274°
2026-05-08 01:44 40.00208 -82.88761 812 ft 110 kts 274°
2026-05-08 01:44 40.00279 -82.90008 849 ft 162 kts 274°
2026-05-08 01:44 40.00364 -82.91409 1695 ft 151 kts 274°
2026-05-08 01:45 40.00455 -82.92735 2623 ft 149 kts 275°
2026-05-08 01:45 40.00536 -82.94032 3360 ft 147 kts 275°
2026-05-08 01:45 40.00606 -82.95328 4073 ft 145 kts 272°
2026-05-08 01:45 40.00593 -82.96636 4762 ft 145 kts 267°
2026-05-08 01:46 40.00351 -82.97923 5210 ft 162 kts 235°
2026-05-08 01:46 39.99323 -82.98663 5705 ft 185 kts 187°
2026-05-08 01:46 39.98048 -82.98171 6220 ft 207 kts 151°
2026-05-08 01:46 39.96836 -82.97057 6737 ft 221 kts 149°
2026-05-08 01:47 39.95467 -82.95950 7148 ft 243 kts 154°
2026-05-08 01:47 39.93919 -82.94864 7663 ft 262 kts 156°
2026-05-08 01:47 39.92244 -82.93732 8243 ft 279 kts 156°
2026-05-08 01:48 39.88609 -82.91252 9510 ft 307 kts 156°
2026-05-08 01:48 39.86695 -82.89931 10294 ft 315 kts 156°
2026-05-08 01:48 39.84726 -82.88572 10856 ft 331 kts 156°
2026-05-08 01:48 39.82647 -82.87141 11421 ft 346 kts 156°
2026-05-08 01:49 39.80478 -82.85651 11999 ft 360 kts 156°
2026-05-08 01:49 39.78194 -82.84083 12545 ft 375 kts 156°
2026-05-08 01:49 39.75865 -82.82481 13259 ft 384 kts 155°
2026-05-08 01:49 39.73492 -82.80847 14036 ft 390 kts 156°
2026-05-08 01:50 39.71097 -82.79200 14815 ft 394 kts 156°
2026-05-08 01:50 39.68665 -82.77528 15594 ft 399 kts 156°
2026-05-08 01:50 39.66206 -82.75841 16320 ft 404 kts 157°
2026-05-08 01:50 39.63697 -82.74121 17085 ft 408 kts 157°
2026-05-08 01:51 39.61186 -82.72403 17711 ft 414 kts 158°
2026-05-08 01:51 39.58599 -82.70636 18424 ft 417 kts 158°
2026-05-08 01:51 39.56014 -82.68873 19035 ft 423 kts 159°
2026-05-08 01:51 39.53406 -82.67094 19652 ft 428 kts 159°
2026-05-08 01:52 39.50776 -82.65304 20272 ft 432 kts 160°
2026-05-08 01:52 39.48071 -82.63575 20838 ft 433 kts 164°
2026-05-08 01:52 39.45276 -82.62222 21421 ft 427 kts 173°
2026-05-08 01:52 39.42379 -82.61485 21973 ft 418 kts 185°
2026-05-08 01:53 39.39695 -82.61359 22620 ft 408 kts 192°
2026-05-08 01:53 39.36874 -82.61583 23220 ft 404 kts 197°
2026-05-08 01:53 39.34099 -82.61962 23843 ft 403 kts 198°
2026-05-08 01:53 39.31267 -82.62395 24308 ft 408 kts 199°
2026-05-08 01:54 39.28419 -82.62813 24904 ft 411 kts 198°
2026-05-08 01:54 39.25566 -82.63203 25289 ft 418 kts 198°
2026-05-08 01:54 39.22670 -82.63565 25905 ft 420 kts 198°
2026-05-08 01:54 39.19746 -82.63902 26501 ft 421 kts 197°
2026-05-08 01:55 39.16821 -82.64227 26877 ft 427 kts 197°
2026-05-08 01:55 39.13820 -82.64549 27408 ft 429 kts 197°
2026-05-08 01:55 39.10859 -82.64855 27866 ft 432 kts 197°
2026-05-08 01:55 39.07859 -82.65162 28399 ft 434 kts 198°
2026-05-08 01:56 39.04830 -82.65467 28816 ft 437 kts 198°
2026-05-08 01:56 39.01765 -82.65781 29151 ft 443 kts 198°
2026-05-08 01:56 38.98711 -82.66081 29875 ft 438 kts 198°
2026-05-08 01:56 38.95642 -82.66215 30121 ft 454 kts 192°
2026-05-08 01:57 38.92439 -82.65892 30658 ft 465 kts 186°
2026-05-08 01:57 38.89246 -82.65132 31245 ft 473 kts 180°
2026-05-08 01:57 38.86062 -82.63941 31772 ft 482 kts 174°
2026-05-08 01:57 38.82946 -82.62335 32228 ft 492 kts 168°
2026-05-08 01:58 38.79877 -82.60310 32565 ft 504 kts 162°
2026-05-08 01:58 38.76884 -82.57860 32927 ft 516 kts 157°
2026-05-08 01:58 38.74021 -82.54997 33411 ft 524 kts 151°
2026-05-08 01:58 38.71358 -82.51805 33789 ft 533 kts 145°
2026-05-08 01:59 38.68848 -82.48222 34106 ft 543 kts 138°
2026-05-08 01:59 38.66572 -82.44338 34419 ft 552 kts 132°
2026-05-08 01:59 38.64546 -82.40163 34782 ft 557 kts 126°
2026-05-08 01:59 38.62928 -82.35651 34993 ft 569 kts 111°
2026-05-08 02:00 38.62211 -82.30648 35019 ft 575 kts 92°
2026-05-08 02:00 38.62426 -82.25595 35032 ft 573 kts 79°
2026-05-08 02:00 38.63996 -82.15695 35021 ft 571 kts 75°
2026-05-08 02:01 38.65000 -82.05569 35020 ft 573 kts 87°
2026-05-08 02:01 38.64400 -81.95461 35024 ft 571 kts 103°
2026-05-08 02:02 38.62410 -81.85695 35027 ft 569 kts 111°
2026-05-08 02:02 38.59876 -81.76220 35018 ft 566 kts 114°
2026-05-08 02:03 38.57267 -81.66752 35043 ft 567 kts 114°
2026-05-08 02:03 38.54744 -81.57276 35032 ft 567 kts 113°
2026-05-08 02:04 38.52276 -81.47678 35031 ft 568 kts 112°
2026-05-08 02:04 38.49844 -81.38180 35030 ft 566 kts 114°
2026-05-08 02:05 38.46590 -81.29218 35032 ft 546 kts 134°
2026-05-08 02:05 38.44224 -81.25538 35031 ft 532 kts 145°
2026-05-08 02:05 38.41587 -81.22257 35034 ft 524 kts 149°
2026-05-08 02:06 38.36139 -81.16209 35030 ft 518 kts 153°
2026-05-08 02:06 38.30627 -81.10355 35023 ft 517 kts 152°
2026-05-08 02:07 38.25085 -81.04459 35016 ft 520 kts 152°
2026-05-08 02:07 38.19539 -80.98490 35014 ft 519 kts 152°
2026-05-08 02:08 38.14039 -80.92526 35016 ft 519 kts 152°
2026-05-08 02:08 38.08537 -80.86545 35016 ft 522 kts 152°
2026-05-08 02:09 38.03059 -80.80602 35017 ft 523 kts 152°
2026-05-08 02:09 37.97511 -80.74592 35014 ft 518 kts 152°
2026-05-08 02:10 37.92017 -80.68658 35012 ft 521 kts 152°
2026-05-08 02:10 37.86477 -80.62693 35226 ft 527 kts 152°
2026-05-08 02:11 37.83703 -80.59716 35021 ft 526 kts 152°
2026-05-08 02:11 37.80950 -80.56742 35005 ft 517 kts 152°
2026-05-08 02:11 37.75431 -80.50800 35009 ft 521 kts 152°
2026-05-08 02:12 37.69879 -80.44871 34819 ft 528 kts 152°
2026-05-08 02:12 37.67062 -80.41864 34553 ft 527 kts 152°
2026-05-08 02:12 37.64271 -80.38879 34291 ft 525 kts 152°
2026-05-08 02:13 37.61492 -80.35904 34029 ft 523 kts 152°
2026-05-08 02:13 37.58739 -80.32963 33762 ft 522 kts 153°
2026-05-08 02:13 37.55953 -80.29995 33487 ft 525 kts 153°
2026-05-08 02:13 37.53154 -80.27025 33046 ft 528 kts 153°
2026-05-08 02:14 37.50365 -80.24060 32565 ft 524 kts 153°
2026-05-08 02:14 37.47573 -80.21085 32184 ft 516 kts 153°
2026-05-08 02:14 37.44863 -80.18192 31923 ft 514 kts 153°
2026-05-08 02:14 37.42143 -80.15302 31692 ft 512 kts 153°
2026-05-08 02:15 37.39403 -80.12402 31419 ft 514 kts 153°
2026-05-08 02:15 37.36684 -80.09443 31175 ft 518 kts 149°
2026-05-08 02:15 37.34097 -80.06297 30934 ft 519 kts 145°
2026-05-08 02:15 37.31672 -80.02948 30667 ft 520 kts 141°
2026-05-08 02:16 37.29367 -79.99482 30429 ft 523 kts 139°
2026-05-08 02:16 37.27100 -79.95894 30165 ft 521 kts 138°
2026-05-08 02:16 37.24907 -79.92333 29923 ft 520 kts 137°
2026-05-08 02:16 37.22689 -79.88707 29663 ft 524 kts 137°
2026-05-08 02:17 37.20493 -79.85117 29411 ft 520 kts 136°
2026-05-08 02:17 37.18304 -79.81552 29166 ft 515 kts 137°
2026-05-08 02:17 37.16134 -79.78038 28898 ft 512 kts 137°
2026-05-08 02:17 37.13936 -79.74505 28633 ft 510 kts 138°
2026-05-08 02:18 37.11762 -79.71029 28394 ft 506 kts 137°
2026-05-08 02:18 37.09585 -79.67561 28140 ft 503 kts 137°
2026-05-08 02:18 37.07441 -79.64163 27832 ft 503 kts 137°
2026-05-08 02:18 37.05258 -79.60710 27388 ft 500 kts 137°
2026-05-08 02:19 37.03113 -79.57318 26836 ft 497 kts 137°
2026-05-08 02:19 37.00978 -79.53948 26252 ft 495 kts 137°
2026-05-08 02:19 36.98849 -79.50591 25678 ft 493 kts 136°
2026-05-08 02:19 36.96726 -79.47248 25072 ft 491 kts 136°
2026-05-08 02:20 36.94618 -79.43926 24502 ft 488 kts 136°
2026-05-08 02:20 36.92519 -79.40624 23942 ft 485 kts 135°
2026-05-08 02:20 36.90432 -79.37343 23347 ft 482 kts 135°
2026-05-08 02:20 36.88351 -79.34076 22757 ft 479 kts 136°
2026-05-08 02:21 36.86271 -79.30809 22179 ft 475 kts 135°
2026-05-08 02:21 36.84247 -79.27634 21595 ft 472 kts 135°
2026-05-08 02:21 36.82220 -79.24457 21026 ft 467 kts 135°
2026-05-08 02:21 36.80194 -79.21283 20444 ft 463 kts 135°
2026-05-08 02:22 36.78209 -79.18177 19866 ft 454 kts 135°
2026-05-08 02:22 36.76289 -79.15170 19299 ft 443 kts 135°
2026-05-08 02:22 36.74393 -79.12200 18759 ft 431 kts 135°
2026-05-08 02:22 36.72549 -79.09315 18226 ft 421 kts 135°
2026-05-08 02:23 36.70756 -79.06517 17703 ft 411 kts 135°
2026-05-08 02:23 36.68919 -79.03838 17160 ft 397 kts 141°
2026-05-08 02:23 36.66869 -79.01733 16686 ft 375 kts 157°
2026-05-08 02:23 36.64568 -79.00482 16205 ft 350 kts 173°
2026-05-08 02:24 36.62243 -78.99737 15735 ft 338 kts 176°
2026-05-08 02:24 36.60001 -78.99123 15264 ft 329 kts 176°
2026-05-08 02:24 36.57748 -78.98530 14805 ft 336 kts 176°
2026-05-08 02:24 36.55403 -78.97912 14317 ft 347 kts 175°
2026-05-08 02:25 36.53067 -78.97264 13848 ft 340 kts 174°
2026-05-08 02:25 36.50783 -78.96607 13341 ft 338 kts 174°
2026-05-08 02:25 36.48497 -78.95943 12865 ft 335 kts 174°
2026-05-08 02:25 36.46230 -78.95282 12386 ft 332 kts 174°
2026-05-08 02:26 36.44000 -78.94634 12006 ft 326 kts 173°
2026-05-08 02:26 36.41827 -78.94003 11940 ft 322 kts 173°
2026-05-08 02:26 36.39671 -78.93375 11927 ft 312 kts 174°
2026-05-08 02:26 36.37553 -78.92760 11748 ft 308 kts 174°
2026-05-08 02:27 36.35494 -78.92166 11501 ft 302 kts 174°
2026-05-08 02:27 36.33445 -78.91578 11256 ft 301 kts 174°
2026-05-08 02:27 36.31393 -78.90993 11012 ft 303 kts 174°
2026-05-08 02:27 36.29351 -78.90406 10764 ft 301 kts 173°
2026-05-08 02:28 36.27299 -78.89814 10512 ft 299 kts 173°
2026-05-08 02:28 36.25282 -78.89233 10266 ft 297 kts 173°
2026-05-08 02:28 36.23270 -78.88657 10017 ft 295 kts 173°
2026-05-08 02:28 36.21273 -78.88097 9757 ft 289 kts 173°
2026-05-08 02:29 36.19328 -78.87557 9504 ft 284 kts 173°
2026-05-08 02:29 36.17415 -78.87030 9260 ft 282 kts 173°
2026-05-08 02:29 36.15502 -78.86504 9020 ft 282 kts 173°
2026-05-08 02:29 36.13581 -78.85974 8768 ft 283 kts 173°
2026-05-08 02:30 36.11646 -78.85439 8519 ft 283 kts 172°
2026-05-08 02:30 36.09716 -78.84905 8279 ft 284 kts 172°
2026-05-08 02:30 36.07804 -78.84374 8032 ft 279 kts 171°
2026-05-08 02:30 36.05942 -78.83871 7985 ft 266 kts 174°
2026-05-08 02:31 36.05062 -78.83695 7988 ft 262 kts 176°
2026-05-08 02:31 36.03805 -78.83508 7974 ft 256 kts 179°
2026-05-08 02:31 36.02073 -78.83313 7830 ft 249 kts 180°
2026-05-08 02:31 36.00353 -78.83138 7592 ft 246 kts 179°
2026-05-08 02:32 35.98630 -78.82986 7308 ft 245 kts 184°
2026-05-08 02:32 35.96967 -78.83253 7029 ft 236 kts 208°
2026-05-08 02:32 35.95675 -78.84346 6790 ft 227 kts 232°
2026-05-08 02:32 35.94572 -78.85844 6507 ft 243 kts 233°
2026-05-08 02:33 35.93423 -78.87371 6206 ft 245 kts 231°
2026-05-08 02:33 35.92239 -78.88849 6028 ft 236 kts 230°
2026-05-08 02:33 35.91103 -78.90256 5869 ft 229 kts 230°
2026-05-08 02:33 35.89974 -78.91660 5457 ft 234 kts 231°
2026-05-08 02:34 35.88821 -78.93092 5134 ft 234 kts 231°
2026-05-08 02:34 35.87677 -78.94487 4893 ft 231 kts 230°
2026-05-08 02:34 35.86535 -78.95864 4672 ft 227 kts 228°
2026-05-08 02:34 35.85221 -78.96975 4309 ft 236 kts 205°
2026-05-08 02:35 35.83592 -78.97239 4001 ft 240 kts 173°
2026-05-08 02:35 35.82030 -78.96570 3701 ft 236 kts 149°
2026-05-08 02:35 35.80732 -78.95361 3369 ft 228 kts 132°
2026-05-08 02:35 35.79899 -78.93832 3082 ft 206 kts 104°
2026-05-08 02:36 35.79706 -78.92214 2842 ft 181 kts 82°
2026-05-08 02:36 35.79818 -78.90763 2644 ft 160 kts 73°
2026-05-08 02:36 35.80167 -78.89548 2400 ft 144 kts 52°
2026-05-08 02:36 35.80771 -78.88620 2229 ft 134 kts 43°
2026-05-08 02:37 35.81413 -78.87777 2119 ft 137 kts 41°
2026-05-08 02:37 35.82070 -78.86948 1971 ft 133 kts 41°
2026-05-08 02:37 35.82742 -78.86120 1896 ft 137 kts 41°
2026-05-08 02:37 35.83408 -78.85302 1701 ft 136 kts 43°
2026-05-08 02:38 35.84080 -78.84476 1502 ft 136 kts 42°
2026-05-08 02:38 35.84752 -78.83649 1291 ft 139 kts 44°
2026-05-08 02:38 35.85418 -78.82745 1096 ft 140 kts 47°
2026-05-08 02:38 35.86088 -78.81902 818 ft 137 kts 45°
2026-05-08 02:39 35.86742 -78.81065 613 ft 134 kts 45°
2026-05-08 02:39 35.87401 -78.80257 451 ft 137 kts 45°
2026-05-08 02:39 35.88060 -78.79437 378 ft 117 kts 45°
2026-05-08 02:39 35.88488 -78.78909 393 ft 60 kts 44°
2026-05-08 02:40 35.88703 -78.78643 394 ft 35 kts 45°
2026-05-08 02:40 35.88766 -78.78529 394 ft 11 kts 83°
2026-05-08 02:40 35.88746 -78.78456 396 ft 3 kts 131°
2026-05-08 02:40 35.88736 -78.78446 397 ft 0 kts 143°
2026-05-08 02:41 35.88729 -78.78441 397 ft 2 kts 160°
2026-05-08 02:41 35.88708 -78.78449 398 ft 4 kts 216°
2026-05-08 02:41 35.88667 -78.78497 399 ft 11 kts 225°
2026-05-08 02:41 35.88602 -78.78577 400 ft 13 kts 225°
2026-05-08 02:42 35.88529 -78.78667 401 ft 17 kts 224°
2026-05-08 02:42 35.88434 -78.78785 399 ft 20 kts 225°
2026-05-08 02:42 35.88331 -78.78911 396 ft 21 kts 225°
2026-05-08 02:42 35.88221 -78.79047 392 ft 23 kts 225°
2026-05-08 02:43 35.88103 -78.79192 389 ft 24 kts 225°
2026-05-08 02:43 35.88031 -78.79282 386 ft 7 kts 224°
2026-05-08 02:43 35.88003 -78.79291 387 ft 2 kts 169°
2026-05-08 02:43 35.87987 -78.79280 388 ft 2 kts 137°
2026-05-08 02:44 35.87976 -78.79261 389 ft 2 kts 123°
2026-05-08 02:44 35.87965 -78.79243 390 ft 5 kts 128°
2026-05-08 02:44 35.87938 -78.79207 392 ft 4 kts 135°
2026-05-08 02:44 35.87931 -78.79199 392 ft 0 kts 134°